Weather in Zubkovo

Russia / Novosibirsk Oblast     53°46′08″N   78°39′14″E
temp.,
°C
wind,
m/s
gust,
m/s
humid.,
%
clouds,
%
prec.,
mm/h
press.,
hPa
HPBL,
m
19 september, sun
sun1901:00+8ssw4962100 0.0 1009288
04:00+9s61353100 0.0 1007451
07:00+9ssw71553100 0.0 1006737
10:00+11ssw71348100 0.0 10041050
13:00+12wsw9115599 0.1 10041690
16:00+10w8105342 0.1 10061558
19:00+10w6949100 0.1 10071521
22:00+7w6107598 0.2 1008998
20 september, mon
mon2001:00+6wsw611685 0.4 1008543
04:00+4wsw61270100 0.0 1010711
07:00+4wsw8138295 0.0 10111038
10:00+5wsw91268100 0.0 10111195
13:00+5wsw81275100 0.3 10131132
16:00+6w81170100 0.4 10131314
19:00+6w61063100 0.8 10131347
22:00+5w61071100 0.2 1014773
21 september, tue
tue2101:00+2w498934 0.2 1015329
04:00+1w5109531 0.0 1016349
07:00+1w588997 0.0 1017438
10:00+3w6995100 0.1 1018564
13:00+6wnw6870100 0.3 10191066
16:00+7wnw675995 0.4 10201319
19:00+6wnw586189 0.4 1021693
22:00+3wnw378041 0.1 1022190
22 september, wed
wed2201:00+1w368930 0.1 1022154
04:00+1w3889100 0.0 1022210
07:00+1w4889100 0.0 1022273
10:00+3w577299 0.0 1022766
13:00+5w5663100 0.1 10221277
16:00+5w565899 0.0 10221169
19:00+5w4555100 0.1 10221115
22:00+4wsw3660100 0.0 1022640
23 september, thu
thu2301:00+4wsw486493 0.0 1021367
04:00+3w5992100 0.1 1020637
07:00+2w4696100 0.8 1020431
10:00+3w4795100 0.2 1021564
13:00+3nw5793100 0.7 1022582
16:00+5nw676395 0.4 10231365
19:00+3n588996 0.5 1025653
22:00+3nnw4983100 0.1 1027589